{"data":{"norad_id":56767,"intl_designator":"2023-078A","name":"STARLINK-6197","alt_names":[],"object_type":"PAYLOAD","status":"ACTIVE","operator":null,"country":"US","launch_date":"2023-05-31","launch_site_code":"AFWTR","launch_vehicle":null,"mission":null,"orbit_class":"UNKNOWN","rcs_meters":null,"size_class":null,"mass_kg":null,"dimensions":null,"purposes":["comms"],"wikipedia_slug":null,"has_3d_model":false,"image_url":null,"decayed_at":null,"tle_current":{"epoch":"2026-09-20T06:21:32.996736Z","epoch_age_seconds":135241,"freshness":"FRESH","line1":"1 56767U 23078A   26263.26496524  .00017238  00000+0  69843-3 0  9991","line2":"2 56767  69.9869 201.5746 0006668 221.4378 138.6290 15.24683704182132","mean_motion":15.24683704,"eccentricity":0.0006668,"inclination_deg":69.9869,"raan_deg":201.5746,"arg_perigee_deg":221.4378,"mean_anomaly_deg":138.629,"bstar":0.00069843,"rev_number":18213,"period_min":94.445818252151,"perigee_km":487.15454308834,"apogee_km":496.31620488629,"semimajor_km":6869.8723739873,"source":"CELESTRAK","updated_at":"2026-09-21T09:00:33.485135Z"}}}